PRAETORIAN SDA_616

Last updated on Wed Aug 19 2026 00:03:42 GMT+0000 (Coordinated Universal Time)

1 65579U 25203Q 26229.32076106 .00000213 00000+0 18308-3 0 9998 2 65579 81.3086 314.5748 0006190 46.5688 313.5982 13.83272734 47131
UTC large
Height (km)
Speed (km/s)
/
Latitude / Longitude
Inclination (degrees)
Orbital Period (minutes)
Azimuth
Elevation
Range (km)
Doppler Factor

Next 0 passes for location: London (51.5072 / 0.1276)

No passes found over London.
PRAETORIAN SDA_616